Flag for U.S.A. Weather past 2 weeks in Provo, Utah, U.S.A.

Now
25 °F

Passing clouds.


Feels Like: 25 °F
Forecast: 18 / 37 °F
Wind: No wind

Location: Provo Municipal

Current Time: Mar 4, 2015 at 6:30:48 AM

Latest Report: Mar 4, 2015 at 5:55 AM


Visibility: 10 mi

Pressure: 30.09 "Hg

Humidity: 80%

Dew point: 19 °F

Location of ProvoLocation

Historic Weather in Provo — Graph

°F

Provo temperature yesterday

Maximum temperature yesterday: 41 °F (at 8:50 AM)
Minimum temperature yesterday: 28 °F (at 10:15 PM)
Average temperature yesterday: 33 °F

Past Weeks' High & Low Weather Summary

 TemperatureHumidityPressure
High55 °F (Feb 19, 3:48 PM)93% (Feb 21, 8:47 PM)30.35 "Hg (Feb 21, 8:47 PM)
Low21 °F (Feb 17, 6:35 AM)23% (Feb 24, 3:55 PM)29.61 "Hg (Mar 2, 3:54 PM)
Average34 °F66%30.01 "Hg
* Reported Feb 17 5:15 AM — Mar 4 5:35 AM, Provo, Weather by CustomWeather, © 2015

Note: Actual official high and low records may vary slightly from our data, if they occured in-between our weather recording intervals... More about our weather records

Advertising

Provo weather history for previous 24 hours

 ConditionsComfort  
Time TempWeatherWind HumidityBarometerVisibility
5:35 AM
Wed, Mar 4
25 °FPassing clouds.3 mph86%30.09 "Hg10 mi
5:15 AM27 °FPassing clouds.5 mph80%30.08 "Hg10 mi
4:55 AM27 °FPartly cloudy.3 mph80%30.08 "Hg10 mi
4:35 AM27 °FPassing clouds.3 mph80%30.07 "Hg8 mi
4:15 AM27 °FPassing clouds.5 mph80%30.06 "Hg10 mi
3:55 AM27 °FPassing clouds.3 mph74%30.06 "Hg10 mi
3:35 AM25 °FPassing clouds.5 mph80%30.06 "Hg10 mi
3:15 AM25 °FOvercast.3 mph80%30.05 "Hg10 mi
2:55 AM23 °FPassing clouds.5 mph86%30.06 "Hg10 mi
2:35 AM23 °FPassing clouds.5 mph86%30.05 "Hg10 mi
2:15 AM25 °FClear.5 mph80%30.05 "Hg10 mi
1:55 AM25 °FClear.3 mph80%30.05 "Hg10 mi
1:35 AM27 °FClear.5 mph80%30.04 "Hg10 mi
1:15 AM27 °FClear.No wind80%30.04 "Hg10 mi
12:55 AM25 °FClear.No wind86%30.03 "Hg10 mi
12:35 AM27 °FClear.No wind80%30.03 "Hg10 mi
12:15 AM27 °FClear.No wind80%30.03 "Hg10 mi
11:55 PM
Tue, Mar 3
28 °FClear.No wind74%30.02 "Hg10 mi
11:35 PM28 °FClear.No wind80%30.01 "Hg10 mi
11:15 PM28 °FPassing clouds.No wind74%30.02 "Hg10 mi
10:55 PM30 °FPassing clouds.No wind75%30.02 "Hg10 mi
10:35 PM30 °FPassing clouds.3 mph75%30.02 "Hg10 mi
10:15 PM28 °FPassing clouds.7 mph74%30.01 "Hg10 mi
9:55 PM30 °FPartly cloudy.3 mph69%30.01 "Hg10 mi
9:35 PM30 °FPassing clouds.6 mph69%30.00 "Hg10 mi
9:15 PM30 °FPassing clouds.12 mph69%29.99 "Hg10 mi
8:56 PM30 °FPassing clouds.No wind69%29.98 "Hg10 mi
7:51 PM30 °FPassing clouds.12 mphN/A29.95 "Hg10 mi
6:51 PM32 °FPassing clouds.12 mph60%29.93 "Hg10 mi
5:47 PM34 °FScattered clouds.17 mph65%29.91 "Hg10 mi
3:47 PM34 °FScattered showers. Broken clouds.20 mph75%29.89 "Hg10 mi
2:48 PM34 °FScattered showers. Broken clouds.20 mph75%29.87 "Hg10 mi
1:48 PM34 °FScattered showers. Broken clouds.20 mph81%29.87 "Hg10 mi
12:49 PM34 °FScattered showers. More clouds than sun.16 mph75%29.86 "Hg10 mi
11:59 AM32 °FScattered showers. Broken clouds.14 mph80%29.86 "Hg10 mi
10:59 AM30 °FLight snow. Ice fog.17 mph93%29.85 "Hg1 mi
9:59 AM37 °FLight mixture of precip. More clouds than sun.15 mph70%29.82 "Hg4 mi
8:50 AM41 °FScattered showers. Broken clouds.8 mph61%29.80 "Hg10 mi
7:50 AM36 °FScattered showers. Broken clouds.8 mph75%29.79 "Hg10 mi
6:49 AM32 °FScattered showers. Passing clouds.7 mph87%29.80 "Hg10 mi
6:35 AM34 °FPassing clouds.7 mph81%29.80 "Hg10 mi
6:15 AM36 °FMostly cloudy.8 mph75%29.80 "Hg10 mi
Weather by CustomWeather, © 2015

See weather overviewHow to use our weather pages